Regional Weather Roundup
Issued by NWS

Home | Current Version | Previous Version | Graphics & Text | Print | Product List | Glossary On
Versions: 1 2 3 4 5 6 7 8 9 10 11 12 13 14 15 16 17 18 19 20 21 22 23 24 25 26 27 28 29 30 31 32 33 34 35 36 37 38 39 40 41 42 43 44 45 46 47 48 49 50
000
ASUS45 KTFX 020710
RWRMT
MONTANA REGIONAL WEATHER ROUNDUP
NATIONAL WEATHER SERVICE GREAT FALLS MT
100 AM MDT WED SEP 02 2015

NOTE: "FAIR" INDICATES FEW OR NO CLOUDS BELOW 12000 FEET WITH NO
SIGNIFICANT WEATHER AND/OR OBSTRUCTIONS TO VISIBILITY.

MTZ001>007-043-020800-
WEST OF THE DIVIDE

CITY           SKY/WX    TMP DP  RH WIND       PRES   REMARKS
KALISPELL      CLOUDY    55  37  50 W3        29.75S
MISSOULA       PTCLDY    60  39  45 SE3       29.79R
BUTTE          CLEAR     51  34  52 CALM      29.91R
MULLAN PASS    CLOUDY    52  29  41 SW6       29.89F
DEER LODGE       N/A     50  36  57 CALM      29.89R
EUREKA           N/A     54  43  66 CALM      29.74
HAMILTON         N/A     55  41  58 SW2       29.79S
LIBBY            N/A     54  37  54 CALM      29.74S
PLAINS           N/A     55  35  46 CALM      29.79R
RONAN            N/A     55  42  61 CALM      29.84S
$$

MTZ008-052>055-020800-
SOUTHWEST MONTANA

CITY           SKY/WX    TMP DP  RH WIND       PRES   REMARKS
BOZEMAN        PTCLDY    57  36  45 W5        29.83R
DILLON         CLEAR     64  25  22 S10       29.88R
W YELLOWSTONE  PTCLDY    45  27  49 CALM      30.05S
$$

MTZ009-010-012-014-046-048-049-054-020800-
EAST SLOPES AND CENTRAL MONTANA

CITY           SKY/WX    TMP DP  RH WIND       PRES   REMARKS
CUT BANK       MOCLDY    57  30  35 S7        29.76S
GREAT FALLS    PTCLDY    59  33  37 NW8       29.75F
MALMSTROM AFB  MOCLDY    63  34  33 W2        29.74F
HELENA         CLEAR     59  34  39 W5        29.78R
CONRAD           N/A     50  34  54 SE2       29.81S
$$

MTZ011-013-016-021-045-047-050-051-020800-
NORTH CENTRAL MONTANA

CITY           SKY/WX    TMP DP  RH WIND       PRES   REMARKS
HAVRE          MOCLDY    56  40  55 E5        29.72S
LEWISTOWN      PTCLDY    63  38  39 CALM      29.79F
N BAR RANCH      N/A     52  37  58 NW5       29.86F
CHINOOK          N/A     59  39  47 E5        29.73R
FORT BENTON      N/A     63  34  34 NE5       29.72F
$$

MTZ017>020-022>027-061-062-020800-
NORTHEAST MONTANA

CITY           SKY/WX    TMP DP  RH WIND       PRES   REMARKS
GLASGOW        CLEAR     59  42  53 E13       29.75S
JORDAN           N/A     53  35  50 CALM      29.77F
SIDNEY         CLEAR     57  41  54 NW5       29.77F
WOLF POINT     CLEAR     55  43  63 NE7       29.77S
MALTA            N/A     52  40  63 CALM      29.72S
PLENTYWOOD       N/A     64  41  42 E5        29.79S
POPLAR           N/A     63  43  48 N5        29.78S
$$

MTZ028>42-056>058-020800-
SOUTHCENTRAL AND SOUTHEAST MONTANA

CITY           SKY/WX    TMP DP  RH WIND       PRES   REMARKS
BAKER          CLEAR     62  51  67 E3        29.83S
BILLINGS       CLEAR     70  32  24 SW13      29.79S
LIVINGSTON     PTCLDY    64  27  24 E3        29.84S
MILES CITY     CLEAR     63  38  39 NE5       29.77S
EKALAKA          N/A     66  51  58 SE9       29.85S
FORSYTH          N/A     64  34  32 E3        29.76S
LAUREL           N/A     61  33  34 SW3       29.80S
$$

REGIONAL REPORTS...DAKOTAS

CITY           SKY/WX    TMP DP  RH WIND       PRES   REMARKS
WILLISTON      CLEAR     59  43  55 N3        29.78F
MINOT          CLEAR     68  62  81 S5        29.77R
DICKINSON      CLEAR     63  55  75 SE5       29.80S
BISMARCK       CLEAR     68  65  90 SE8       29.79S
GRAND FORKS    PTCLDY    67  59  75 SE7       29.81F
FARGO          CLEAR     73  69  87 SE7       29.82F
BUFFALO SD       N/A     63  53  70 NE3       29.78F
RAPID CITY     CLEAR     61  52  72 NW8       29.87S
$$

REGIONAL REPORTS...WYOMING/IDAHO/WASHINGTON

CITY           SKY/WX    TMP DP  RH WIND       PRES   REMARKS
GILLETTE       PTCLDY    76  39  26 S20       29.88F
SHERIDAN       PTCLDY    60  38  43 SE3       29.84R
BUFFALO WY     PTCLDY    75  37  25 SW16      29.92F
CODY           CLEAR     68  28  22 SW10      29.92S
YELLOWSTONE LA   N/A     42  30  62 NW3       30.17S
IDAHO FALLS    CLEAR     58  42  55 CALM      29.90F
SALMON         CLEAR     55  34  44 CALM      29.80S
BOISE          PTCLDY    72  37  28 SE6       29.75R
SPOKANE        CLOUDY    62  44  51 S8        29.74S
$$

REGIONAL REPORTS...ALBERTA

CITY           SKY/WX    TMP DP  RH WIND       PRES   REMARKS
EDMONTON       MOCLDY    50  45  81 E10       29.63F
CALGARY        MOCLDY    57  36  44 SW7       29.62F
LETHBRIDGE     CLEAR     50  37  62 S8        29.68F HAZE
MEDICINE HAT   PTCLDY    55  39  54 VRB2      29.67F
WATERTON GATE    N/A     52  34  50 E2          N/A
CARDSTON         N/A     61  27  27 S7          N/A
MILK RIVER       N/A     55  34  44 S3          N/A
ONEFOUR          N/A     55  27  33 E8          N/A
$$

REGIONAL REPORTS...SASKATCHEWAN

CITY           SKY/WX    TMP DP  RH WIND       PRES   REMARKS
SWIFT CURRENT  CLEAR     52  39  62 SE9       29.73F
REGINA         MOCLDY    52  46  82 E7        29.77S
SASKATOON      PTCLDY    54  43  66 E6        29.75S
CYPRESS HILLS    N/A     57  21  24 S5          N/A
VAL MARIE        N/A     54  32  43 SW2         N/A
ROCKGLEN         N/A     59  41  51 SE6         N/A
ASSINIBOIA       N/A     54  45  71 NE10        N/A
$$


USA.gov is the U.S. government's official web portal to all federal, state and local government web resources and services.